{"data":{"norad_id":49316,"intl_designator":"2021-091B","name":"2021-091B","alt_names":[],"object_type":"PAYLOAD","status":"ACTIVE","operator":null,"country":"PRC","launch_date":"2021-10-14","launch_site_code":"TAISC","launch_vehicle":null,"mission":null,"orbit_class":"UNKNOWN","rcs_meters":null,"size_class":null,"mass_kg":null,"dimensions":null,"purposes":[],"wikipedia_slug":null,"has_3d_model":false,"image_url":null,"decayed_at":null,"tle_current":{"epoch":"2026-09-20T22:09:03.483936Z","epoch_age_seconds":67988,"freshness":"FRESH","line1":"1 49316U 21091B   26263.92295699  .00002312  00000+0  11365-3 0  9992","line2":"2 49316  97.4482  90.0834 0014809  68.7008 291.5806 15.18954838273515","mean_motion":15.18954838,"eccentricity":0.0014809,"inclination_deg":97.4482,"raan_deg":90.0834,"arg_perigee_deg":68.7008,"mean_anomaly_deg":291.5806,"bstar":0.00011365,"rev_number":27351,"period_min":94.802028603829,"perigee_km":498.79891025804,"apogee_km":519.19722690416,"semimajor_km":6887.1350685811,"source":"CELESTRAK","updated_at":"2026-09-21T09:00:08.045223Z"}}}